Weather History for KVBG - April, 2013

Change the Weather History Date:

Monday, April 1, 2013

  Actual Average Record
Temperature  
Mean Temperature 58 °F -  
Max Temperature 64 °F - - ()
Min Temperature 51 °F - - ()
Degree Days  
Heating Degree Days 8    
Growing Degree Days 8 (Base 50)    
Moisture  
Dew Point 51 °F    
Average Humidity 87    
Maximum Humidity 94    
Minimum Humidity 67    
Precipitation  
Precipitation 0.02 in - - ()
Sea Level Pressure  
Sea Level Pressure 30.13 in    
Wind  
Wind Speed 6 mph (East)    
Max Wind Speed 15 mph    
Max Gust Speed -    
Visibility 9 miles    
Events Rain    
T = Trace of Precipitation, MM = Missing Value Source: NWS Daily Summary

Daily Weather History Graph

Daily Weather History Graph

Search for Another Location

Airport or City:

Trip Planner

Search our weather history database for the weather conditions in past years. The results will help you decide how hot, cold, wet, or windy it might be!

Date:

Astronomy

Apr. 01, 2013 Rise Set
Actual Time 6:48 AM PDT 7:23 PM PDT
Civil Twilight 6:23 AM PDT 7:49 PM PDT
Nautical Twilight 5:53 AM PDT 8:19 PM PDT
Astronomical Twilight 5:23 AM PDT 8:49 PM PDT
Moon 12:26 AM PDT (4/1) 10:51 AM PDT (4/1)
Length of Visible Light 13h 25m
Length of Day
12h 34m
Waning Gibbous, 66% of the Moon is Illuminated
Apr 1
Waning Gibbous
Apr 2
Last Quarter
Apr 10
New
Apr 18
First Quarter
Apr 25
Full

Hourly Weather History & Observations

Time (PDT) Temp. Dew Point Humidity Pressure Visibility Wind Dir Wind Speed Gust Speed Precip Events Conditions
12:00 AM 51.8 °F 50.0 °F 94% 30.13 in 3.0 mi ESE 3.5 mph - N/A   Overcast
12:06 AM 51.8 °F 50.0 °F 94% 30.13 in 10.0 mi SE 3.5 mph - N/A   Overcast
12:26 AM 51.8 °F 50.0 °F 94% 30.13 in 10.0 mi East 4.6 mph - N/A   Overcast
12:55 AM 52.0 °F 50.0 °F 93% 30.10 in 10.0 mi East 8.1 mph - N/A   Overcast
1:13 AM 53.6 °F 51.8 °F 94% 30.13 in 10.0 mi SE 3.5 mph - N/A   Overcast
1:24 AM 53.6 °F 51.8 °F 94% 30.13 in 10.0 mi ESE 5.8 mph - N/A   Overcast
1:55 AM 53.1 °F 50.0 °F 89% 30.10 in 7.0 mi East 5.8 mph - 0.00 in Rain Light Rain
2:03 AM 53.6 °F 50.0 °F 88% 30.13 in 9.0 mi ESE 4.6 mph - 0.00 in   Overcast
2:10 AM 53.6 °F 51.8 °F 94% 30.13 in 10.0 mi ESE 4.6 mph - 0.00 in   Overcast
2:26 AM 53.6 °F 50.0 °F 88% 30.12 in 10.0 mi ESE 5.8 mph - 0.00 in   Overcast
2:36 AM 51.8 °F 50.0 °F 94% 30.12 in 10.0 mi SE 6.9 mph - 0.00 in   Overcast
2:55 AM 53.1 °F 50.0 °F 89% 30.09 in 10.0 mi ESE 5.8 mph - 0.00 in   Overcast
3:55 AM 53.1 °F 51.1 °F 93% 30.09 in 10.0 mi ESE 4.6 mph - N/A   Overcast
4:37 AM 53.6 °F 51.8 °F 94% 30.11 in 10.0 mi SE 4.6 mph - N/A   Overcast
4:55 AM 53.1 °F 50.0 °F 89% 30.09 in 10.0 mi SE 3.5 mph - N/A   Overcast
5:10 AM 53.6 °F 50.0 °F 88% 30.12 in 10.0 mi SE 3.5 mph - N/A   Overcast
5:55 AM 53.1 °F 50.0 °F 89% 30.10 in 10.0 mi East 5.8 mph - N/A   Overcast
6:22 AM 53.6 °F 50.0 °F 88% 30.13 in 10.0 mi ESE 4.6 mph - N/A   Overcast
6:55 AM 53.1 °F 48.9 °F 86% 30.11 in 8.0 mi SE 4.6 mph - N/A   Overcast
7:55 AM 54.0 °F 50.0 °F 86% 30.13 in 10.0 mi SE 5.8 mph - N/A   Overcast
8:46 AM 55.4 °F 50.0 °F 82% 30.16 in 7.0 mi SE 4.6 mph - 0.00 in   Light Drizzle
8:55 AM 55.0 °F 51.1 °F 86% 30.14 in 6.0 mi SE 4.6 mph - 0.00 in   Light Drizzle
9:04 AM 55.4 °F 51.8 °F 88% 30.17 in 4.0 mi South 3.5 mph - 0.01 in Rain Light Rain
9:14 AM 55.4 °F 53.6 °F 94% 30.17 in 4.0 mi SE 3.5 mph - 0.02 in Rain Light Rain
9:21 AM 55.4 °F 53.6 °F 94% 30.17 in 5.0 mi ESE 4.6 mph - 0.02 in   Mostly Cloudy
9:55 AM 57.9 °F 54.0 °F 87% 30.15 in 7.0 mi Variable 3.5 mph - 0.02 in   Mostly Cloudy
10:55 AM 61.0 °F 54.0 °F 78% 30.16 in 10.0 mi SW 8.1 mph - N/A   Mostly Cloudy
11:55 AM 63.0 °F 54.0 °F 72% 30.17 in 10.0 mi WSW 12.7 mph - N/A   Mostly Cloudy
12:55 PM 61.0 °F 54.0 °F 78% 30.16 in 10.0 mi WSW 10.4 mph - N/A   Mostly Cloudy
1:55 PM 62.1 °F 53.1 °F 72% 30.14 in 10.0 mi West 8.1 mph - N/A   Mostly Cloudy
2:55 PM 64.0 °F 53.1 °F 67% 30.14 in 10.0 mi WSW 12.7 mph - N/A   Mostly Cloudy
3:55 PM 63.0 °F 52.0 °F 67% 30.13 in 10.0 mi WNW 8.1 mph - N/A   Mostly Cloudy
4:55 PM 61.0 °F 51.1 °F 70% 30.12 in 10.0 mi NW 10.4 mph - N/A   Mostly Cloudy
5:24 PM 57.2 °F 51.8 °F 82% 30.14 in 10.0 mi NW 10.4 mph - N/A   Partly Cloudy
5:55 PM 55.9 °F 51.1 °F 84% 30.12 in 10.0 mi NW 10.4 mph - N/A   Mostly Cloudy
6:05 PM 57.2 °F 51.8 °F 82% 30.15 in 10.0 mi NW 9.2 mph - N/A   Mostly Cloudy
6:55 PM 55.0 °F 52.0 °F 89% 30.13 in 10.0 mi NW 9.2 mph - N/A   Mostly Cloudy
7:55 PM 54.0 °F 52.0 °F 93% 30.12 in 10.0 mi NW 5.8 mph - N/A   Overcast
8:32 PM 55.4 °F 51.8 °F 88% 30.14 in 10.0 mi NNW 9.2 mph - N/A   Overcast
8:47 PM 55.4 °F 51.8 °F 88% 30.14 in 10.0 mi NNW 9.2 mph - N/A   Overcast
8:55 PM 55.0 °F 52.0 °F 89% 30.12 in 10.0 mi NNW 13.8 mph - N/A   Overcast
9:35 PM 55.4 °F 51.8 °F 88% 30.15 in 10.0 mi NNW 15.0 mph - N/A   Overcast
9:55 PM 55.0 °F 52.0 °F 89% 30.13 in 10.0 mi NNW 9.2 mph - N/A   Overcast
10:10 PM 53.6 °F 51.8 °F 94% 30.15 in 10.0 mi NNW 10.4 mph - N/A   Scattered Clouds
10:17 PM 53.6 °F 51.8 °F 94% 30.14 in 10.0 mi NNW 10.4 mph - N/A   Mostly Cloudy
10:24 PM 53.6 °F 51.8 °F 94% 30.14 in 10.0 mi NNW 9.2 mph - N/A   Mostly Cloudy
10:35 PM 53.6 °F 50.0 °F 88% 30.14 in 10.0 mi NW 8.1 mph - N/A   Mostly Cloudy
10:46 PM 53.6 °F 50.0 °F 88% 30.15 in 10.0 mi NNW 6.9 mph - N/A   Scattered Clouds
10:55 PM 52.0 °F 50.0 °F 93% 30.12 in 10.0 mi NNW 6.9 mph - N/A   Scattered Clouds
11:42 PM 51.8 °F 48.2 °F 88% 30.15 in 9.0 mi NW 4.6 mph - N/A   Mostly Cloudy
11:55 PM 53.1 °F 51.1 °F 93% 30.12 in 9.0 mi NW 6.9 mph - N/A   Overcast